SKYSAT-C8

Last updated on Sun Jun 21 2026 00:02:52 GMT+0000 (Coordinated Universal Time)

1 42990U 17068D 26171.32343326 .00008930 00000+0 24879-3 0 9991 2 42990 97.4530 308.0128 0001437 95.5767 264.5641 15.37027507482795
UTC large
Height (km)
Speed (km/s)
/
Latitude / Longitude
Inclination (degrees)
Orbital Period (minutes)
Azimuth
Elevation
Range (km)
Doppler Factor

Next 0 passes for location: London (51.5072 / 0.1276)

No passes found over London.
SKYSAT-C8